This demonstration page uses our WeatherBlox Daily Observations layout. Learn more.

Left ArrowRight Arrow

38.20091, -84.87328

Hourly Observations for July 24, 2019

Temp ( °F °C ) Dew Point ( °F °C ) Humidity (%) Winds ( mph kmh ) Pressure ( in mb ) Visibility ( mi km ) Precip ( " mm )
12:53 am 00:53 Clear 63 17.2 59 15 87 87 Calm 30.04 1017 10 16 0.00 0.00
1:53 am 01:53 Clear 62 16.7 58 14.4 86 86 Calm 30.04 1017 9 14 0.00 0.00
3:53 am 03:53 Clear 59 15 57 13.9 93 93 Calm 30.02 1017 8 13 0.00 0.00
4:53 am 04:53 Clear 59 15 56 13.3 90 90 WSW 3 6 30.02 1017 8 13 0.00 0.00
5:53 am 05:53 Clear 58 14.4 56 13.3 93 93 Calm 30.04 1017 9 14 0.00 0.00
6:53 am 06:53 Sunny 58 14.4 55 12.8 90 90 Calm 30.06 1018 9 14 0.00 0.00
7:53 am 07:53 Sunny 61 16.1 57 13.9 87 87 NNW 3 6 30.07 1018 10 16 0.00 0.00
8:53 am 08:53 Sunny 66 18.9 58 14.4 75 75 NNW 6 9 30.09 1019 10 16 0.00 0.00
9:53 am 09:53 Sunny 69 20.6 59 15 70 70 VRB 5 7 30.10 1019 10 16 0.00 0.00
10:53 am 10:53 Sunny 72 22.2 60 15.6 66 66 VRB 3 6 30.11 1020 10 16 0.00 0.00
11:53 am 11:53 Sunny 76 24.4 60 15.6 58 58 Calm 30.11 1020 10 16 0.00 0.00
12:53 pm 12:53 Sunny 78 25.6 58 14.4 50 50 NNW 3 6 30.09 1019 10 16 0.00 0.00
2:53 pm 14:53 Sunny 81 27.2 54 12.2 39 39 Calm 30.08 1019 10 16 0.00 0.00
4:53 pm 16:53 Sunny 82 27.8 56 13.3 41 41 NNE 7 11 30.06 1018 10 16 0.00 0.00
5:53 pm 17:53 Sunny 81 27.2 54 12.2 39 39 NW 8 13 30.07 1018 10 16 0.00 0.00
6:53 pm 18:53 Sunny 80 26.7 53 11.7 39 39 N 6 9 30.06 1018 10 16 0.00 0.00
7:53 pm 19:53 Sunny 79 26.1 53 11.7 41 41 N 5 7 30.08 1019 10 16 0.00 0.00
8:53 pm 20:53 Sunny 73 22.8 57 13.9 57 57 Calm 30.09 1019 10 16 0.00 0.00
9:53 pm 21:53 Clear 66 18.9 59 15 78 78 Calm 30.10 1019 10 16 0.00 0.00
10:53 pm 22:53 Clear 65 18.3 59 15 81 81 NW 3 6 30.11 1020 10 16 0.00 0.00
11:53 pm 23:53 Clear 64 17.8 59 15 84 84 Calm 30.11 1020 10 16 0.00 0.00

Powered by AerisWeather